Voltar ao catálogo

KUIPER-00027

AtivoComunicaçõesLEO
NORAD 63740·PAYLOAD·🇺🇸 United States

Lançado Apr 28, 2025 de Cape Canaveral Space Force Station

Loading…

Próximas Passagens (próximas 24 horas)

TLE

AtualizadoSource: CelesTrak SupGP

Época: Sep 15, 2026, 04:54 UTC

1 63740C 25088S   26258.20437500  .00003072  00000+0  40209-3 0  2584
2 63740  51.9017 337.5721 0000454  89.8888 204.6565 14.79928050    19

Acompanhe KUIPER-00027 em tempo real com AllMySat

Download on the App Store